Regional Weather Roundup
Issued by NWS

Home | Current Version | Previous Version | Text Only | Print | Product List | Glossary On
Versions: 1 2 3 4 5 6 7 8 9 10 11 12 13 14 15 16 17 18 19 20 21 22 23 24 25 26 27 28 29 30 31 32 33 34 35 36 37 38 39 40 41 42 43 44 45 46 47 48 49 50
000
ASCA42 TJSJ 102211
RWRPR
PUERTO RICO/U.S. VIRGIN ISLANDS HOURLY WEATHER ROUNDUP
NATIONAL WEATHER SERVICE SAN JUAN PR
600 PM AST THU JUL 10 2014

PRZ001-004-102300-
PUERTO RICO

CITY           SKY/WX    TMP DP  RH WIND       PRES   REMARKS
SAN JUAN LMM   LGT RAIN  84  77  79 E18G25    30.05R HX  94
PONCE          MOSUNNY   88  75  66 SE12      29.98S HX  97
MAYAGUEZ       PTSUNNY   88  72  58 E6        30.02F HX  94
AGUADILLA      MOSUNNY   82  72  69 E18G24    30.04S
CEIBA          CLOUDY    84  73  70 E8        30.07R HX  91
$$

PRZ006-007-102300-
U.S. VIRGIN ISLANDS

CITY           SKY/WX    TMP DP  RH WIND       PRES   REMARKS
CHARLOTTE AMA  CLOUDY    86  75  70 E16       30.04S HX  95
CHRISTIANSTED  MOSUNNY   84  72  65 E16       30.04R
$$

HOURLY WEATHER ROUNDUP FOR THE NEWS MEDIA

CITY           SKY/WX    TMP DP  RH WIND       PRES   REMARKS
MIAMI          CLOUDY    82  71  69 NE6       30.09S
ORLANDO        TSTM      75  73  93 S6        30.10F FOG
NEW YORK       PTSUNNY   77  61  57 SE10      30.10R
NEWARK         PTSUNNY   80  60  50 SE13G20   30.07S
CHICAGO        MOSUNNY   76  52  43 E12       30.14F
HARTFORD       PTSUNNY   79  65  62 S7        30.07S
BOSTON         MOSUNNY   82  55  39 W8        30.07F
DALLAS         MOSUNNY   96  61  31 S17       29.94F HX  96
PHILADELPHIA   PTSUNNY   84  62  47 SE10      30.06S



USA.gov is the U.S. government's official web portal to all federal, state and local government web resources and services.